Terminal Aerodrome Forecast
Issued by NWS

Current Version | Previous Version | Text Only | Print | Product List | Glossary On
Versions: 1 2 3 4 5 6 7 8 9 10 11 12 13 14 15 16 17
000
FTUS46 KLOX 300500
TAFSBP
TAF
KSBP 300529Z 3006/3106 30007KT P6SM SKC
     FM300700 VRB03KT P6SM OVC007
     FM301300 VRB03KT P6SM OVC004
     FM301700 31007KT P6SM SKC
     FM302000 30015G20KT P6SM SKC
     FM310300 30008KT P6SM SKC=

USA.gov is the U.S. government's official web portal to all federal, state and local government web resources and services.